Weather History for KEWR - June, 2013

Change the Weather History Date:

Saturday, June 15, 2013

  Actual Average Record
Temperature  
Mean Temperature 71 °F 72 °F  
Max Temperature 82 °F 82 °F 101 °F (1994)
Min Temperature 59 °F 63 °F 48 °F (1933)
Degree Days  
Heating Degree Days 0 0  
Month to date heating degree days 8 15  
Since 1 June heating degree days 8 15  
Since 1 July heating degree days 4639 4870  
Cooling Degree Days 6 8  
Month to date cooling degree days 85 92  
Year to date cooling degree days 185 168  
Since 1 June cooling degree days 85 92  
Growing Degree Days 20 (Base 50)    
Moisture  
Dew Point 53 °F    
Average Humidity 55    
Maximum Humidity 78    
Minimum Humidity 32    
Precipitation  
Precipitation 0.00 in 0.13 in 1.17 in (1964)
Month to date precipitation 8.02 2.12  
Year to date precipitation 24.27 21.01  
Snow  
Snow 0.00 in 0.00 in 0.00 in (2002)
Month to date snowfall 0.0 0.0  
Since 1 July snowfall 29.5 28.5  
Snow Depth 0.00 in    
Sea Level Pressure  
Sea Level Pressure 29.95 in    
Wind  
Wind Speed 8 mph (West)    
Max Wind Speed 16 mph    
Max Gust Speed 23 mph    
Visibility 10 miles    
Events      
T = Trace of Precipitation, MM = Missing Value Source: NWS Daily Summary

Daily Weather History Graph

Daily Weather History Graph

Search for Another Location

Airport or City:

Trip Planner

Search our weather history database for the weather conditions in past years. The results will help you decide how hot, cold, wet, or windy it might be!

Date:

Astronomy

Jun. 15, 2013 Rise Set
Actual Time 5:25 AM EDT 8:29 PM EDT
Civil Twilight 4:51 AM EDT 9:02 PM EDT
Nautical Twilight 4:09 AM EDT 9:45 PM EDT
Astronomical Twilight 3:19 AM EDT 10:35 PM EDT
Moon 11:59 AM EDT (6/15) 12:02 AM EDT (6/15)
Length of Visible Light 16h 11m
Length of Day
15h 04m
Waxing Crescent, 39% of the Moon is Illuminated
Jun 15
Waxing Crescent
Jun 16
First Quarter
Jun 23
Full
Jun 30
Last Quarter
Jul 8
New

Hourly Weather History & Observations

Time (EDT) Temp. Dew Point Humidity Pressure Visibility Wind Dir Wind Speed Gust Speed Precip Events Conditions
12:51 AM 62.1 °F 55.9 °F 80% 29.89 in 10.0 mi Calm Calm - N/A   Clear
1:51 AM 64.0 °F 55.0 °F 73% 29.90 in 10.0 mi WNW 4.6 mph - N/A   Clear
2:51 AM 63.0 °F 55.0 °F 75% 29.91 in 10.0 mi NW 4.6 mph - N/A   Clear
3:51 AM 62.1 °F 55.0 °F 78% 29.92 in 10.0 mi Calm Calm - N/A   Clear
4:51 AM 60.1 °F 54.0 °F 80% 29.93 in 10.0 mi Calm Calm - N/A   Partly Cloudy
5:51 AM 60.1 °F 54.0 °F 80% 29.95 in 10.0 mi Calm Calm - N/A   Partly Cloudy
6:51 AM 64.0 °F 57.0 °F 78% 29.96 in 10.0 mi West 3.5 mph - N/A   Partly Cloudy
7:51 AM 68.0 °F 55.9 °F 65% 29.97 in 10.0 mi NW 8.1 mph - N/A   Partly Cloudy
8:51 AM 71.1 °F 55.9 °F 59% 30.01 in 10.0 mi WNW 12.7 mph - N/A   Partly Cloudy
9:51 AM 73.9 °F 55.0 °F 52% 30.01 in 10.0 mi WNW 9.2 mph - N/A   Partly Cloudy
10:51 AM 77.0 °F 51.1 °F 40% 30.00 in 10.0 mi WNW 10.4 mph - N/A   Partly Cloudy
11:39 AM 78.8 °F 48.2 °F 34% 29.99 in 10.0 mi WNW 10.4 mph - N/A   Partly Cloudy
11:51 AM 78.1 °F 46.9 °F 33% 29.99 in 10.0 mi NNW 12.7 mph - N/A   Partly Cloudy
12:51 PM 79.0 °F 48.9 °F 35% 29.98 in 10.0 mi West 10.4 mph 16.1 mph N/A   Scattered Clouds
1:51 PM 80.1 °F 50.0 °F 35% 29.97 in 10.0 mi West 12.7 mph 16.1 mph N/A   Scattered Clouds
2:51 PM 79.0 °F 51.1 °F 38% 29.94 in 10.0 mi SW 10.4 mph 18.4 mph N/A   Mostly Cloudy
3:51 PM 79.0 °F 53.1 °F 40% 29.93 in 10.0 mi WNW 9.2 mph 19.6 mph N/A   Scattered Clouds
4:51 PM 82.0 °F 51.1 °F 34% 29.93 in 10.0 mi West 15.0 mph - N/A   Mostly Cloudy
5:51 PM 81.0 °F 48.9 °F 33% 29.93 in 10.0 mi WSW 11.5 mph - N/A   Scattered Clouds
6:20 PM 80.6 °F 50.0 °F 34% 29.93 in 10.0 mi WSW 11.5 mph - N/A   Scattered Clouds
6:51 PM 81.0 °F 51.1 °F 35% 29.93 in 10.0 mi West 12.7 mph - N/A   Scattered Clouds
7:51 PM 78.1 °F 51.1 °F 39% 29.94 in 10.0 mi WSW 11.5 mph - N/A   Scattered Clouds
8:51 PM 77.0 °F 51.1 °F 40% 29.95 in 10.0 mi West 10.4 mph - N/A   Mostly Cloudy
9:51 PM 73.9 °F 53.1 °F 48% 29.97 in 10.0 mi West 6.9 mph - N/A   Mostly Cloudy
10:51 PM 72.0 °F 53.1 °F 51% 29.98 in 10.0 mi West 5.8 mph - N/A   Mostly Cloudy
11:51 PM 70.0 °F 54.0 °F 57% 29.98 in 10.0 mi West 6.9 mph - N/A   Mostly Cloudy